Find Starlink 32580

NORAD ID: 62075 Int'l Des: 2024-217 Owner: SPXS Country: US Constellation: starlink operational
LEOCIRCULAR

現在のビュー

3D地球を読み込み中...

About Starlink 32580

Starlink 32580 (NORAD 62075) is a starlink constellation satellite (v2 mini) launched Nov 24, 2024 by SPXS of US. It operates in LEO, CIRCULAR orbit with a mass of 730.00 kg.

次回通過

Passes for default location (London). Set your location on the main map for personalized predictions.

高度履歴

Loading altitude history...

軌道要素

1 62075U 24217U 26266.21556149 .00018461 00000-0 55625-3 0 9997
2 62075 53.1608 342.9044 0001262 94.8887 265.2260 15.34395003103859
Epoch: Sep 23, 2026 • Age: 6 hours

現在のステータス

高度 465.8 km
遠地点 / 近地点 N/A
速度 7.63 km/s
衛星直下点 -10.30°S, 161.03°E
打ち上げ日 Nov 24, 2024
運用期間 1.8 years
タイプ internet

技術仕様

分類 Payload
質量 730.00 kg
乾燥質量 700.00 kg
長さ 0.30 m
スパン 29.00 m
形状 ? Box + pan
製造者 SPXS
バスタイプ Starlink V2M
フェーズステータス In Orbit
所有者/国 SPXS/US

Most Searched